Home > Weather > Matamoros > Past weeks

Flag for Mexico Weather for the Past 2 Weeks in Matamoros, Tamaulipas, Mexico

Now
83 °F

Mostly cloudy.


Feels Like: 92 °F
Forecast: N/A
Wind: 17 mph from Southeast

Location: Brownsville / South Padre Island International Airport

Current Time: Apr 29, 2016 at 4:57:35 PM

Latest Report: Apr 29, 2016 at 3:53 PM


Visibility: 7 mi

Pressure: 29.60 "Hg

Humidity: 82%

Dew Point: 77 °F

Location of MatamorosLocation

Historic Weather in Matamoros — Graph

°F

Matamoros Temperature Yesterday

Maximum temperature yesterday: 87 °F (at 2:53 PM)
Minimum temperature yesterday: 74 °F (at 3:04 AM)
Average temperature yesterday: 80 °F

High & Low Weather Summary for the Past Weeks

 TemperatureHumidityPressure
High90 °F (Apr 18, 2:53 PM)100% (Apr 15, 12:53 AM)30.09 "Hg (Apr 15, 12:53 AM)
Low60 °F (Apr 15, 6:01 AM)43% (Apr 18, 3:53 PM)29.57 "Hg (Apr 27, 4:53 AM)
Average77 °F85%29.84 "Hg
* Reported Apr 14 2:53 PM — Apr 29 2:53 PM, Matamoros, Weather by CustomWeather, © 2016

Note: Actual official high and low records may vary slightly from our data, if they occured in-between our weather recording intervals... More about our weather records

Advertising

Matamoros Weather History for the Previous 24 Hours

Scroll right to see more
 ConditionsComfort  
Time TempWeatherWind HumidityBarometerVisibility
2:53 PM
Fri, Apr 29
83 °FMostly cloudy.22 mph82%29.63 "Hg7 mi
1:53 PM84 °FMostly cloudy.25 mph80%29.64 "Hg8 mi
12:53 PM83 °FMostly cloudy.22 mph79%29.67 "Hg9 mi
11:53 AM82 °FOvercast.20 mph82%29.69 "Hg8 mi
10:53 AM81 °FMostly cloudy.22 mph85%29.69 "Hg8 mi
9:53 AM80 °FOvercast.18 mph87%29.70 "Hg8 mi
8:53 AM79 °FMostly cloudy.15 mph90%29.69 "Hg8 mi
7:53 AM79 °FMostly cloudy.17 mph90%29.68 "Hg7 mi
6:53 AM79 °FFog.18 mph94%29.68 "Hg5 mi
5:53 AM79 °FFog.16 mph94%29.67 "Hg4 mi
4:53 AM80 °FFog.13 mph90%29.68 "Hg5 mi
3:53 AM80 °FFog.13 mph90%29.67 "Hg5 mi
2:53 AM79 °FFog.14 mph94%29.69 "Hg5 mi
1:53 AM80 °FFog.15 mph94%29.70 "Hg5 mi
12:53 AM80 °FFog.12 mph94%29.70 "Hg5 mi
11:53 PM
Thu, Apr 28
80 °FFog.9 mph90%29.72 "Hg6 mi
10:53 PM80 °FFog.9 mph90%29.71 "Hg6 mi
9:53 PM80 °FOvercast.9 mph90%29.70 "Hg7 mi
8:53 PM80 °FOvercast.13 mph90%29.69 "Hg8 mi
7:53 PM80 °FOvercast.12 mph87%29.68 "Hg8 mi
6:53 PM81 °FOvercast.13 mph82%29.67 "Hg9 mi
5:53 PM82 °FOvercast.15 mph79%29.67 "Hg6 mi
4:53 PM84 °FPartly sunny.16 mph74%29.67 "Hg6 mi
Weather by CustomWeather, © 2016

See weather overviewHow to use our weather pages